When you browse on this site, cookies collect data to enhance your experience and personalize the content and advertising you see.
Visit our Privacy Policy to learn more. By continuing to use the site, you agree to this use of cookies and data.
  • en France
  • Liste des pays
  • À 7 jours
  • Température de l'eau
  • Carte satellitaire
  • Carte météo
  • Widgets météo
  • user-avatar
    Se connecter

    Météo par heure à Achenheim

    Ce jour, 25 Mai, Samedi

    Heure Température Précipitation Vent Pression Humidité
    00:00 +14°C° 0 mm 1 m/s 745 mmHg 82%
    01:00 +14°C° 0 mm 1 m/s 745 mmHg 85%
    02:00 +14°C° 0 mm 1 m/s 745 mmHg 86%
    03:00 +13°C° 0 mm 1 m/s 745 mmHg 87%
    04:00 +13°C° 0 mm 1 m/s 746 mmHg 88%
    05:00 +14°C° 0 mm 1 m/s 746 mmHg 86%
    06:00 +15°C° 0 mm 1 m/s 746 mmHg 84%
    07:00 +16°C° 0 mm 1 m/s 746 mmHg 80%
    08:00 +18°C° 0.3 mm 1 m/s 746 mmHg 77%
    09:00 +19°C° 0.3 mm 2 m/s 746 mmHg 74%
    10:00 +20°C° 0.3 mm 2 m/s 746 mmHg 71%
    11:00 +21°C° 0.6 mm 2 m/s 746 mmHg 68%
    12:00 +21°C° 0.6 mm 3 m/s 746 mmHg 64%
    13:00 +22°C° 0.6 mm 3 m/s 746 mmHg 61%
    14:00 +22°C° 0.5 mm 3 m/s 746 mmHg 60%
    15:00 +23°C° 0.5 mm 2 m/s 746 mmHg 60%
    16:00 +23°C° 0.5 mm 2 m/s 746 mmHg 60%
    17:00 +21°C° 0.2 mm 2 m/s 746 mmHg 65%
    18:00 +20°C° 0.2 mm 2 m/s 746 mmHg 69%
    19:00 +19°C° 0.2 mm 2 m/s 746 mmHg 73%
    20:00 +17°C° 0 mm 2 m/s 746 mmHg 78%
    21:00 +15°C° 0 mm 2 m/s 747 mmHg 83%
    22:00 +14°C° 0 mm 2 m/s 747 mmHg 87%
    23:00 +13°C° 0 mm 1 m/s 747 mmHg 88%

    Demain, 26 Mai, Dimanche

    Heure Température Précipitation Vent Pression Humidité
    00:00 +13°C° 0 mm 1 m/s 747 mmHg 89%
    01:00 +12°C° 0 mm 1 m/s 747 mmHg 90%
    02:00 +12°C° 0 mm 1 m/s 747 mmHg 91%
    03:00 +11°C° 0 mm 1 m/s 747 mmHg 91%
    04:00 +11°C° 0 mm 1 m/s 747 mmHg 91%
    05:00 +12°C° 0 mm 1 m/s 747 mmHg 89%
    06:00 +13°C° 0 mm 1 m/s 747 mmHg 87%
    07:00 +14°C° 0 mm 1 m/s 747 mmHg 85%
    08:00 +16°C° 0 mm 1 m/s 747 mmHg 78%
    09:00 +17°C° 0 mm 2 m/s 747 mmHg 71%
    10:00 +19°C° 0 mm 2 m/s 747 mmHg 63%
    11:00 +20°C° 0 mm 2 m/s 747 mmHg 59%
    12:00 +21°C° 0 mm 2 m/s 747 mmHg 55%
    13:00 +23°C° 0 mm 2 m/s 746 mmHg 51%
    14:00 +23°C° 0 mm 2 m/s 746 mmHg 52%
    15:00 +23°C° 0 mm 2 m/s 746 mmHg 53%
    16:00 +22°C° 0 mm 3 m/s 745 mmHg 54%
    17:00 +21°C° 0 mm 2 m/s 745 mmHg 59%
    18:00 +21°C° 0 mm 2 m/s 745 mmHg 64%
    19:00 +21°C° 0 mm 1 m/s 745 mmHg 70%
    20:00 +19°C° 0 mm 1 m/s 745 mmHg 75%
    21:00 +18°C° 0 mm 1 m/s 745 mmHg 81%
    22:00 +15°C° 0 mm 1 m/s 745 mmHg 87%
    23:00 +15°C° 0 mm 1 m/s 745 mmHg 88%

    Après-demain, 27 Mai, Lundi

    Heure Température Précipitation Vent Pression Humidité
    00:00 +14°C° 0 mm 1 m/s 745 mmHg 89%
    01:00 +14°C° 0 mm 1 m/s 745 mmHg 90%
    02:00 +13°C° 0 mm 1 m/s 745 mmHg 91%
    03:00 +13°C° 0 mm 2 m/s 745 mmHg 91%
    04:00 +13°C° 0 mm 2 m/s 744 mmHg 92%
    05:00 +14°C° 0 mm 2 m/s 744 mmHg 90%
    06:00 +15°C° 0 mm 2 m/s 744 mmHg 89%
    07:00 +15°C° 0 mm 2 m/s 744 mmHg 87%
    08:00 +16°C° 0 mm 2 m/s 744 mmHg 84%
    09:00 +18°C° 0 mm 2 m/s 744 mmHg 81%
    10:00 +19°C° 0 mm 2 m/s 744 mmHg 77%
    11:00 +19°C° 0.5 mm 2 m/s 744 mmHg 78%
    12:00 +20°C° 0.5 mm 3 m/s 743 mmHg 78%
    13:00 +20°C° 0.5 mm 3 m/s 743 mmHg 78%
    14:00 +20°C° 0.2 mm 3 m/s 743 mmHg 78%
    15:00 +20°C° 0.2 mm 3 m/s 742 mmHg 78%
    16:00 +20°C° 0.2 mm 3 m/s 742 mmHg 78%
    17:00 +19°C° 0.2 mm 2 m/s 742 mmHg 80%
    18:00 +19°C° 0.2 mm 2 m/s 742 mmHg 82%
    19:00 +19°C° 0.2 mm 2 m/s 742 mmHg 84%
    20:00 +18°C° 0.1 mm 2 m/s 742 mmHg 86%
    21:00 +17°C° 0.1 mm 2 m/s 742 mmHg 88%
    22:00 +16°C° 0.1 mm 1 m/s 743 mmHg 90%
    23:00 +15°C° 0.1 mm 2 m/s 742 mmHg 90%

    28 Mai, Mardi

    Heure Température Précipitation Vent Pression Humidité
    00:00 +15°C° 0.1 mm 2 m/s 742 mmHg 90%
    01:00 +14°C° 0.1 mm 2 m/s 742 mmHg 90%
    02:00 +14°C° 0 mm 2 m/s 742 mmHg 90%
    03:00 +13°C° 0 mm 2 m/s 742 mmHg 91%
    04:00 +12°C° 0 mm 2 m/s 742 mmHg 91%
    05:00 +13°C° 0 mm 2 m/s 742 mmHg 89%
    06:00 +13°C° 0 mm 2 m/s 742 mmHg 88%
    07:00 +13°C° 0 mm 2 m/s 742 mmHg 87%
    08:00 +13°C° 0.3 mm 3 m/s 742 mmHg 84%
    09:00 +14°C° 0.3 mm 3 m/s 742 mmHg 81%
    10:00 +14°C° 0.3 mm 4 m/s 742 mmHg 79%
    11:00 +15°C° 0 mm 4 m/s 742 mmHg 70%
    12:00 +17°C° 0 mm 4 m/s 742 mmHg 62%
    13:00 +19°C° 0 mm 4 m/s 742 mmHg 54%
    14:00 +18°C° 0.2 mm 4 m/s 742 mmHg 58%
    15:00 +18°C° 0.2 mm 4 m/s 742 mmHg 62%
    16:00 +17°C° 0.2 mm 4 m/s 742 mmHg 66%
    17:00 +17°C° 0.5 mm 4 m/s 743 mmHg 70%
    18:00 +16°C° 0.5 mm 3 m/s 743 mmHg 75%
    19:00 +15°C° 0.5 mm 2 m/s 743 mmHg 80%
    20:00 +14°C° 0.5 mm 2 m/s 744 mmHg 83%
    21:00 +12°C° 0.5 mm 2 m/s 744 mmHg 86%
    22:00 +10°C° 0.5 mm 2 m/s 745 mmHg 89%
    23:00 +10°C° 0.1 mm 2 m/s 745 mmHg 91%

    29 Mai, Mercredi

    Heure Température Précipitation Vent Pression Humidité
    00:00 +9°C° 0.1 mm 2 m/s 745 mmHg 92%
    01:00 +9°C° 0.1 mm 2 m/s 745 mmHg 93%
    02:00 +8°C° 0 mm 2 m/s 746 mmHg 94%
    03:00 +8°C° 0 mm 2 m/s 746 mmHg 94%
    04:00 +8°C° 0 mm 2 m/s 746 mmHg 95%
    05:00 +8°C° 0 mm 2 m/s 746 mmHg 93%
    06:00 +9°C° 0 mm 2 m/s 747 mmHg 91%
    07:00 +10°C° 0 mm 2 m/s 748 mmHg 90%
    08:00 +12°C° 0 mm 2 m/s 748 mmHg 83%
    09:00 +14°C° 0 mm 2 m/s 748 mmHg 76%
    10:00 +15°C° 0 mm 2 m/s 749 mmHg 69%
    11:00 +16°C° 0.2 mm 2 m/s 749 mmHg 66%
    12:00 +16°C° 0.2 mm 2 m/s 749 mmHg 64%
    13:00 +17°C° 0.2 mm 2 m/s 749 mmHg 61%
    14:00 +18°C° 0.1 mm 3 m/s 749 mmHg 60%
    15:00 +18°C° 0.1 mm 3 m/s 749 mmHg 60%
    16:00 +18°C° 0.1 mm 3 m/s 749 mmHg 59%
    17:00 +18°C° 0.1 mm 2 m/s 749 mmHg 64%
    18:00 +17°C° 0.1 mm 2 m/s 750 mmHg 68%
    19:00 +18°C° 0.1 mm 1 m/s 750 mmHg 73%
    20:00 +15°C° 0 mm 1 m/s 751 mmHg 77%
    21:00 +13°C° 0 mm 1 m/s 751 mmHg 81%
    22:00 +10°C° 0 mm 0 m/s 752 mmHg 85%
    23:00 +11°C° 0 mm 1 m/s 752 mmHg 86%

    30 Mai, Jeudi

    Heure Température Précipitation Vent Pression Humidité
    00:00 +10°C° 0 mm 1 m/s 752 mmHg 87%
    01:00 +10°C° 0 mm 1 m/s 753 mmHg 89%
    02:00 +10°C° 0 mm 1 m/s 753 mmHg 89%
    03:00 +9°C° 0 mm 1 m/s 753 mmHg 90%
    04:00 +9°C° 0 mm 1 m/s 753 mmHg 91%
    05:00 +10°C° 0 mm 1 m/s 753 mmHg 88%
    06:00 +12°C° 0 mm 1 m/s 753 mmHg 85%
    07:00 +13°C° 0 mm 1 m/s 754 mmHg 83%
    08:00 +14°C° 0 mm 2 m/s 753 mmHg 75%
    09:00 +16°C° 0 mm 2 m/s 753 mmHg 68%
    10:00 +18°C° 0 mm 2 m/s 753 mmHg 61%
    11:00 +19°C° 0 mm 3 m/s 753 mmHg 57%
    12:00 +20°C° 0 mm 3 m/s 753 mmHg 53%
    13:00 +21°C° 0 mm 3 m/s 753 mmHg 49%
    14:00 +21°C° 0 mm 3 m/s 752 mmHg 52%
    15:00 +21°C° 0 mm 3 m/s 752 mmHg 55%
    16:00 +21°C° 0 mm 3 m/s 752 mmHg 58%
    17:00 +20°C° 0.5 mm 3 m/s 751 mmHg 67%
    18:00 +18°C° 0.5 mm 3 m/s 751 mmHg 75%
    19:00 +17°C° 0.5 mm 3 m/s 751 mmHg 83%
    20:00 +16°C° 0.7 mm 3 m/s 751 mmHg 87%
    21:00 +16°C° 0.7 mm 3 m/s 751 mmHg 90%
    22:00 +14°C° 0.7 mm 3 m/s 751 mmHg 93%
    23:00 +14°C° 0.6 mm 3 m/s 751 mmHg 93%
    Voir plus